Date,TemperatureHighF,TemperatureAvgF,TemperatureLowF,DewpointHighF,DewpointAvgF,DewpointLowF,HumidityHigh,HumidityAvg,HumidityLow,PressureMaxIn,PressureMinIn,WindSpeedMaxMPH,WindSpeedAvgMPH,GustSpeedMaxMPH,PrecipitationSumIn
2014-2-1,78.1,67.8,57.8,72.4,65.8,57.5,100,94,75,30.06,29.95,5,0,7,0.01
2014-2-2,88.0,73.3,63.2,72.9,66.5,61.7,99,82,42,30.08,29.96,7,0,8,0.00
2014-2-3,87.4,72.1,62.0,73.8,64.7,60.6,99,80,43,30.04,29.92,9,0,10,0.01
2014-2-4,85.9,73.2,63.4,72.1,67.2,61.9,99,83,56,30.05,29.93,10,1,10,0.04
2014-2-5,86.7,75.5,68.6,72.3,69.2,66.2,97,82,54,29.99,29.87,11,1,15,0.01
2014-2-6,72.8,60.9,49.8,69.0,55.7,47.9,94,83,68,30.11,29.95,8,1,10,0.09
2014-2-7,58.7,54.8,49.6,57.9,53.7,47.7,98,96,93,30.11,30.02,7,0,10,0.11
2014-2-8,58.9,56.5,53.8,58.6,56.1,53.2,100,99,98,30.08,29.98,6,0,8,0.47
2014-2-9,74.9,59.7,49.8,57.8,52.1,47.3,99,79,44,30.06,29.96,7,0,8,0.00
2014-2-10,77.4,59.0,44.5,56.4,47.8,43.0,99,72,30,30.05,29.94,7,0,10,0.00
2014-2-11,82.8,63.5,46.7,61.0,54.0,44.9,99,75,42,30.00,29.90,8,1,10,0.00
2014-2-12,80.5,66.1,59.3,65.3,59.9,57.2,98,83,52,29.97,29.61,19,1,19,0.63
2014-2-13,64.0,56.8,44.5,62.5,48.4,40.0,97,74,55,29.91,29.59,21,4,22,0.01
2014-2-14,68.6,52.6,36.0,46.3,37.5,30.0,97,63,26,30.00,29.85,7,0,9,0.00
2014-2-15,72.1,58.9,46.4,56.9,41.4,25.6,93,59,21,30.06,29.82,12,2,15,0.00
2014-2-16,74.7,55.4,39.6,48.2,37.9,23.5,95,60,18,30.13,30.03,8,0,9,0.00
2014-2-17,80.7,58.0,39.8,50.5,40.3,31.8,96,61,18,30.17,30.06,5,0,6,0.00
2014-2-18,84.1,64.2,44.9,58.5,50.1,42.7,96,66,27,30.15,30.06,10,0,10,0.00
2014-2-19,85.3,67.5,51.9,64.7,57.2,50.2,98,74,34,30.11,29.98,7,1,10,0.00
2014-2-20,86.5,71.8,54.4,67.6,61.6,52.4,98,74,41,30.09,29.97,11,2,13,0.00
2014-2-21,81.4,70.4,63.4,73.5,66.3,61.9,99,88,59,29.99,29.90,6,1,7,0.14
2014-2-22,75.8,68.9,61.8,74.2,66.9,59.5,100,94,85,30.02,29.94,8,0,9,0.25
2014-2-23,88.0,69.1,59.3,71.9,64.0,58.2,100,86,46,30.00,29.87,8,0,11,0.01
2014-2-24,78.5,68.6,60.7,67.7,63.3,58.0,98,84,61,29.99,29.87,5,0,6,0.00
2014-2-25,81.4,67.9,59.0,64.0,59.6,55.8,99,78,42,29.98,29.85,10,0,10,0.00
2014-2-26,72.3,62.8,55.4,64.9,59.7,53.7,99,90,61,29.88,29.61,4,0,7,0.51
2014-2-27,63.4,56.5,51.4,63.1,52.3,45.5,99,87,58,29.89,29.69,12,0,12,0.06
2014-2-28,72.7,57.5,44.6,51.5,45.3,39.1,91,68,30,30.03,29.86,6,0,11,0.00